Montevideo, MN

6:02 AM CDT on August 17, 2017 (GMT -0500)
Montevideo-Chippewa County

Weather History for KMVE - October, 2012

Change the Weather History Date:

Sunday, October 28, 2012

  Actual Average Record
Temperature  
Mean Temperature 40 °F -  
Max Temperature 48 °F 56 °F 81 °F (1983)
Min Temperature 33 °F 32 °F 13 °F (1967)
Degree Days  
Heating Degree Days 24    
Moisture  
Dew Point 31 °F    
Average Humidity 73    
Maximum Humidity 87    
Minimum Humidity 54    
Precipitation  
Precipitation 0.00 in - - ()
Sea Level Pressure  
Sea Level Pressure 30.25 in    
Wind  
Wind Speed 7 mph (SSW)    
Max Wind Speed 12 mph    
Max Gust Speed 18 mph    
Visibility 10 miles    
Events Snow    
Averages and records for this station are not official NWS values.
T = Trace of Precipitation, MM = Missing Value Source: NWS Daily Summary

Daily Weather History Graph

Daily Weather History Graph

Search for Another Location

Airport or City:

Trip Planner

Search our weather history database for the weather conditions in past years. The results will help you decide how hot, cold, wet, or windy it might be!

Date:

Astronomy

Oct. 28, 2012 Rise Set
Actual Time 7:56 AM CDT 6:15 PM CDT
Civil Twilight 7:26 AM CDT 6:46 PM CDT
Nautical Twilight 6:51 AM CDT 7:20 PM CDT
Astronomical Twilight 6:17 AM CDT 7:54 PM CDT
Moon 5:34 PM CDT (10/28) 6:49 AM CDT (10/28)
Length of Visible Light 11h 20m
Length of Day
10h 19m
Waxing Gibbous, 99% of the Moon is Illuminated
Oct 28
Waxing Gibbous
Oct 29
Full
Nov 6
Last Quarter
Nov 13
New
Nov 20
First Quarter

Hourly Weather History & Observations

Time (CDT) Temp. Windchill Dew Point Humidity Pressure Visibility Wind Dir Wind Speed Gust Speed Precip Events Conditions
12:14 AM 33.8 °F 28.6 °F 26.6 °F 75% 30.29 in 10.0 mi SSW 5.8 mph - N/A   Overcast
12:53 AM 33.8 °F 29.6 °F 26.6 °F 75% 30.29 in 10.0 mi SSW 4.6 mph - N/A   Mostly Cloudy
1:14 AM 33.8 °F 28.6 °F 26.6 °F 75% 30.29 in 10.0 mi South 5.8 mph - N/A   Overcast
1:34 AM 33.8 °F 28.6 °F 26.6 °F 75% 30.29 in 10.0 mi SSW 5.8 mph - N/A   Overcast
1:53 AM 33.8 °F 28.6 °F 26.6 °F 75% 30.29 in 10.0 mi SSW 5.8 mph - N/A   Overcast
2:14 AM 33.8 °F 28.6 °F 26.6 °F 75% 30.29 in 10.0 mi SSW 5.8 mph - N/A   Overcast
2:34 AM 33.8 °F 28.6 °F 26.6 °F 75% 30.29 in 10.0 mi South 5.8 mph - N/A   Overcast
2:54 AM 33.8 °F 28.6 °F 26.6 °F 75% 30.29 in 10.0 mi South 5.8 mph - N/A   Overcast
3:14 AM 33.8 °F 29.6 °F 26.6 °F 75% 30.28 in 10.0 mi South 4.6 mph - N/A   Overcast
3:34 AM 33.8 °F 28.6 °F 28.4 °F 81% 30.28 in 10.0 mi South 5.8 mph - N/A   Overcast
3:54 AM 33.8 °F 29.6 °F 28.4 °F 81% 30.27 in 10.0 mi SSW 4.6 mph - N/A   Overcast
4:14 AM 33.8 °F 28.6 °F 28.4 °F 81% 30.27 in 10.0 mi SSW 5.8 mph - N/A   Overcast
4:34 AM 33.8 °F 28.6 °F 28.4 °F 81% 30.27 in 10.0 mi SSW 5.8 mph - N/A   Overcast
4:54 AM 33.8 °F 30.8 °F 28.4 °F 81% 30.27 in 10.0 mi South 3.5 mph - N/A   Overcast
5:14 AM 33.8 °F 29.6 °F 28.4 °F 81% 30.27 in 10.0 mi SSW 4.6 mph - N/A   Overcast
5:34 AM 33.8 °F 28.6 °F 28.4 °F 81% 30.27 in 10.0 mi SSW 5.8 mph - N/A   Overcast
5:54 AM 33.8 °F 29.6 °F 28.4 °F 81% 30.27 in 10.0 mi SSW 4.6 mph - N/A   Overcast
6:14 AM 33.8 °F 28.6 °F 28.4 °F 81% 30.27 in 10.0 mi SSW 5.8 mph - N/A Snow Light Snow
6:34 AM 35.6 °F 30.7 °F 28.4 °F 75% 30.28 in 10.0 mi SSW 5.8 mph - N/A   Overcast
6:54 AM 33.8 °F 29.6 °F 28.4 °F 81% 30.28 in 10.0 mi South 4.6 mph - N/A   Overcast
7:14 AM 33.8 °F 28.6 °F 30.2 °F 87% 30.28 in 10.0 mi SSW 5.8 mph - N/A   Overcast
7:34 AM 33.8 °F 29.6 °F 30.2 °F 87% 30.28 in 10.0 mi South 4.6 mph - N/A   Overcast
7:54 AM 35.6 °F 31.7 °F 30.2 °F 81% 30.29 in 10.0 mi SSW 4.6 mph - N/A   Overcast
8:13 AM 35.6 °F 31.7 °F 28.4 °F 75% 30.29 in 10.0 mi SSW 4.6 mph - N/A   Overcast
8:34 AM 35.6 °F 31.7 °F 30.2 °F 81% 30.29 in 10.0 mi SSW 4.6 mph - N/A   Overcast
8:54 AM 35.6 °F 31.7 °F 30.2 °F 81% 30.29 in 10.0 mi South 4.6 mph - N/A   Overcast
9:13 AM 35.6 °F 30.7 °F 30.2 °F 81% 30.30 in 10.0 mi SSW 5.8 mph - N/A   Overcast
9:54 AM 35.6 °F 29.2 °F 30.2 °F 81% 30.29 in 10.0 mi SSW 8.1 mph - N/A   Overcast
10:13 AM 37.4 °F 32.8 °F 30.2 °F 75% 30.29 in 10.0 mi SSW 5.8 mph - N/A   Overcast
10:34 AM 37.4 °F 31.4 °F 30.2 °F 75% 30.28 in 10.0 mi SSW 8.1 mph - N/A   Overcast
10:54 AM 39.2 °F 35.0 °F 30.2 °F 70% 30.28 in 10.0 mi SSW 5.8 mph - N/A   Overcast
11:14 AM 39.2 °F 34.2 °F 30.2 °F 70% 30.27 in 10.0 mi SSW 6.9 mph - N/A   Mostly Cloudy
11:34 AM 39.2 °F 33.0 °F 30.2 °F 70% 30.26 in 10.0 mi SW 9.2 mph - N/A   Scattered Clouds
12:14 PM 42.8 °F 37.5 °F 30.2 °F 61% 30.25 in 10.0 mi SW 9.2 mph - N/A   Scattered Clouds
12:34 PM 44.6 °F 39.7 °F 32.0 °F 61% 30.25 in 10.0 mi SSW 9.2 mph - N/A   Scattered Clouds
12:54 PM 44.6 °F 40.2 °F 30.2 °F 57% 30.24 in 10.0 mi SSW 8.1 mph - N/A   Scattered Clouds
1:14 PM 44.6 °F 39.7 °F 32.0 °F 61% 30.24 in 10.0 mi SSW 9.2 mph - N/A   Scattered Clouds
1:34 PM 44.6 °F 40.2 °F 32.0 °F 61% 30.24 in 10.0 mi SSW 8.1 mph - N/A   Mostly Cloudy
1:54 PM 44.6 °F 40.2 °F 32.0 °F 61% 30.23 in 10.0 mi SSW 8.1 mph - N/A   Mostly Cloudy
2:14 PM 46.4 °F 42.9 °F 33.8 °F 62% 30.22 in 10.0 mi SSW 6.9 mph - N/A   Mostly Cloudy
2:34 PM 46.4 °F 41.1 °F 32.0 °F 57% 30.21 in 10.0 mi SSW 11.5 mph 18.4 mph N/A   Scattered Clouds
2:54 PM 46.4 °F 41.1 °F 32.0 °F 57% 30.21 in 10.0 mi SSW 11.5 mph - N/A   Mostly Cloudy
3:14 PM 48.2 °F - 32.0 °F 54% 30.21 in 10.0 mi SSW 11.5 mph 16.1 mph N/A   Mostly Cloudy
3:34 PM 48.2 °F - 32.0 °F 54% 30.20 in 10.0 mi SSW 11.5 mph 18.4 mph N/A   Mostly Cloudy
3:54 PM 48.2 °F - 32.0 °F 54% 30.19 in 10.0 mi South 10.4 mph 17.3 mph N/A   Mostly Cloudy
4:14 PM 46.4 °F 41.9 °F 32.0 °F 57% 30.20 in 10.0 mi SSW 9.2 mph - N/A   Mostly Cloudy
4:34 PM 46.4 °F 42.9 °F 33.8 °F 62% 30.20 in 10.0 mi SW 6.9 mph - N/A   Mostly Cloudy
4:54 PM 46.4 °F 41.5 °F 33.8 °F 62% 30.20 in 10.0 mi SSW 10.4 mph - N/A   Scattered Clouds
5:14 PM 46.4 °F 42.4 °F 33.8 °F 62% 30.20 in 10.0 mi South 8.1 mph - N/A   Mostly Cloudy
5:34 PM 46.4 °F 43.5 °F 33.8 °F 62% 30.20 in 10.0 mi South 5.8 mph - N/A   Overcast
5:54 PM 46.4 °F 41.9 °F 33.8 °F 62% 30.19 in 10.0 mi South 9.2 mph - N/A   Overcast
6:14 PM 44.6 °F 40.2 °F 33.8 °F 66% 30.20 in 10.0 mi South 8.1 mph - N/A   Mostly Cloudy
6:34 PM 42.8 °F 38.6 °F 33.8 °F 70% 30.20 in 10.0 mi South 6.9 mph - N/A   Scattered Clouds
6:54 PM 39.2 °F 33.6 °F 33.8 °F 81% 30.21 in 10.0 mi South 8.1 mph - N/A   Mostly Cloudy
7:14 PM 41.0 °F 35.8 °F 33.8 °F 76% 30.21 in 10.0 mi SSE 8.1 mph - N/A   Mostly Cloudy
7:34 PM 41.0 °F 35.8 °F 33.8 °F 76% 30.21 in 10.0 mi SSE 8.1 mph - N/A   Overcast
7:54 PM 39.2 °F 33.0 °F 33.8 °F 81% 30.21 in 10.0 mi SSE 9.2 mph - N/A   Scattered Clouds
8:34 PM 37.4 °F 30.8 °F 33.8 °F 87% 30.21 in 10.0 mi SSE 9.2 mph - N/A   Clear
8:53 PM 37.4 °F 30.8 °F 33.8 °F 87% 30.21 in 10.0 mi South 9.2 mph - N/A   Clear
9:14 PM 37.4 °F 30.8 °F 32.0 °F 81% 30.21 in 10.0 mi South 9.2 mph - N/A   Clear
9:34 PM 37.4 °F 30.8 °F 32.0 °F 81% 30.21 in 10.0 mi South 9.2 mph - N/A   Clear
9:53 PM 35.6 °F 29.2 °F 32.0 °F 87% 30.21 in 10.0 mi South 8.1 mph - N/A   Clear
10:14 PM 35.6 °F 29.2 °F 32.0 °F 87% 30.22 in 10.0 mi South 8.1 mph - N/A   Clear
10:34 PM 37.4 °F 31.4 °F 32.0 °F 81% 30.22 in 10.0 mi South 8.1 mph - N/A   Clear
10:53 PM 37.4 °F 30.3 °F 32.0 °F 81% 30.22 in 10.0 mi South 10.4 mph - N/A   Clear
11:14 PM 39.2 °F 32.5 °F 32.0 °F 75% 30.22 in 10.0 mi South 10.4 mph - N/A   Scattered Clouds
11:53 PM 39.2 °F 32.5 °F 30.2 °F 70% 30.22 in 10.0 mi South 10.4 mph - N/A   Clear